This is the latest recevied weather packets stored in our database for station/object KD4EG. If no packets are shown the sender has not sent any weather packets the latest 10 day(s).
| Time | Temp. | Humidity | Pressure | Rain* | Wind** | Luminosity | Snow |
|---|---|---|---|---|---|---|---|
| 1777894656 | 9.44° C | 67% | 1018.3 hPa | 0 mm | - | 39 W/m² | - |
| 1777894352 | 9.44° C | 68% | 1018.3 hPa | 0 mm | - | 39 W/m² | - |
| 1777894050 | 9.44° C | 68% | 1018.2 hPa | 0 mm | - | 37 W/m² | - |
| 1777893746 | 9.44° C | 68% | 1018.3 hPa | 0 mm | - | 35 W/m² | - |
| 1777893443 | 8.89° C | 68% | 1018.4 hPa | 0 mm | - | 32 W/m² | - |
| 1777893140 | 8.89° C | 68% | 1018.3 hPa | 0 mm | - | 29 W/m² | - |
| 1777892836 | 8.89° C | 69% | 1018.5 hPa | 0 mm | - | 27 W/m² | - |
| 1777892532 | 8.89° C | 69% | 1018.3 hPa | 0 mm | - | 26 W/m² | - |
| 1777892228 | 8.89° C | 69% | 1018.5 hPa | 0 mm | - | 19 W/m² | - |
| 1777891925 | 8.89° C | 69% | 1018.4 hPa | 0 mm | - | 15 W/m² | - |
| 1777891623 | 8.89° C | 69% | 1018.3 hPa | 0 mm | - | 10 W/m² | - |
| 1777891319 | 8.89° C | 69% | 1018.3 hPa | 0 mm | - | 6 W/m² | - |
| 1777891014 | 8.89° C | 69% | 1018.2 hPa | 0 mm | - | 5 W/m² | - |
| 1777890708 | 8.89° C | 70% | 1018.5 hPa | 0 mm | - | 2 W/m² | - |
| 1777890404 | 8.33° C | 70% | 1018.1 hPa | 0 mm | - | 2 W/m² | - |
| 1777890100 | 8.89° C | 69% | 1018.2 hPa | 0 mm | - | 1 W/m² | - |
| 1777889798 | 8.33° C | 69% | 1018.1 hPa | 0 mm | - | 0 W/m² | - |
| 1777889495 | 8.89° C | 69% | 1018.1 hPa | 0 mm | - | 0 W/m² | - |
| 1777889193 | 8.89° C | 69% | 1018.1 hPa | 0 mm | - | 0 W/m² | - |
| 1777888891 | 8.89° C | 69% | 1018.3 hPa | 0 mm | - | 0 W/m² | - |
| 1777888586 | 8.89° C | 69% | 1018.1 hPa | 0 mm | - | 0 W/m² | - |
| 1777888282 | 8.89° C | 68% | 1018.1 hPa | 0 mm | - | 0 W/m² | - |
| 1777887979 | 8.89° C | 68% | 1018.4 hPa | 0 mm | - | 0 W/m² | - |
| 1777887677 | 8.89° C | 68% | 1018.1 hPa | 0 mm | - | 0 W/m² | - |
| 1777887373 | 8.89° C | 68% | 1018.4 hPa | 0 mm | - | 0 W/m² | - |
* Rain latest hour (hover to see other rain measurements)
** Current wind speed in m/s (hover to see current wind gust speed)